Weather History for KGNR - October, 2011

Change the Weather History Date:

Sunday, October 9, 2011

  Actual Average (KMLT) Record (KMLT)
Temperature  
Mean Temperature 71 °F 48 °F  
Max Temperature 79 °F 58 °F 82 °F (1909)
Min Temperature 63 °F 38 °F 25 °F (2002)
Degree Days  
Heating Degree Days 0 17  
Month to date heating degree days 142  
Since 1 July heating degree days 470  
Cooling Degree Days 6 0  
Month to date cooling degree days 0  
Year to date cooling degree days 268  
Growing Degree Days 21 (Base 50)    
Moisture  
Dew Point 47 °F    
Average Humidity 48    
Maximum Humidity 63    
Minimum Humidity 26    
Precipitation  
Precipitation 0.00 in 0.15 in 1.27 in (1907)
Month to date precipitation 1.28  
Year to date precipitation 31.93  
Sea Level Pressure  
Sea Level Pressure 30.18 in    
Wind  
Wind Speed 10 mph (NW)    
Max Wind Speed 16 mph    
Max Gust Speed 28 mph    
T = Trace of Precipitation, MM = Missing Value Source: NWS Daily Summary

Daily Weather History Graph

Daily Weather History Graph

Search for Another Location

Airport or City:

Trip Planner

Search our weather history database for the weather conditions in past years. The results will help you decide how hot, cold, wet, or windy it might be!

Date:

Astronomy

Oct. 09, 2011 Rise Set
Actual Time 6:46 AM EDT 6:04 PM EDT
Civil Twilight 6:16 AM EDT 6:33 PM EDT
Nautical Twilight 5:42 AM EDT 7:08 PM EDT
Astronomical Twilight 5:07 AM EDT 7:42 PM EDT
Moon 4:42 PM EDT (10/9) 4:23 AM EDT (10/9)
Length of Visible Light 12h 17m
Length of Day
11h 17m
Waxing Gibbous, 95% of the Moon is Illuminated
Oct 9
Waxing Gibbous
Oct 11
Full
Oct 19
Last Quarter
Oct 26
New
Nov 2
First Quarter

Hourly Weather History & Observations

Time (EDT) Temp. Dew Point Humidity Pressure Visibility Wind Dir Wind Speed Gust Speed Precip Events Conditions
12:56 AM 64.9 °F 46.0 °F 50% 30.20 in - NW 11.5 mph 26.5 mph N/A   Unknown
1:56 AM 64.9 °F 46.0 °F 50% 30.20 in - NW 9.2 mph 21.9 mph N/A   Unknown
2:56 AM 63.0 °F 46.9 °F 56% 30.20 in - NNW 9.2 mph - N/A   Unknown
3:56 AM 64.0 °F 46.0 °F 52% 30.19 in - NNW 12.7 mph 21.9 mph N/A   Unknown
4:56 AM 63.0 °F 46.9 °F 56% 30.19 in - NNW 13.8 mph 24.2 mph N/A   Unknown
5:56 AM 63.0 °F 46.0 °F 54% 30.20 in - NW 15.0 mph 24.2 mph N/A   Unknown
6:56 AM 63.0 °F 46.0 °F 54% 30.21 in - NW 12.7 mph 27.6 mph N/A   Unknown
7:56 AM 63.0 °F 46.0 °F 54% 30.22 in - NW 16.1 mph 24.2 mph N/A   Unknown
8:56 AM 66.0 °F 48.0 °F 52% 30.24 in - NW 15.0 mph 24.2 mph N/A   Unknown
9:56 AM 68.0 °F 48.9 °F 50% 30.25 in - NW 10.4 mph 20.7 mph N/A   Unknown
10:56 AM 70.0 °F 50.0 °F 49% 30.24 in - NW 13.8 mph 21.9 mph N/A   Unknown
11:56 AM 73.0 °F 48.9 °F 42% 30.23 in - NW 10.4 mph 17.3 mph N/A   Unknown
12:56 PM 75.9 °F 44.1 °F 32% 30.19 in - Variable 6.9 mph 19.6 mph N/A   Unknown
1:56 PM 79.0 °F 43.0 °F 28% 30.17 in - Variable 3.5 mph - N/A   Unknown
2:56 PM 78.1 °F 44.1 °F 30% 30.15 in - Variable 4.6 mph - N/A   Unknown
3:56 PM 77.0 °F 39.9 °F 26% 30.13 in - Variable 5.8 mph - N/A   Unknown
4:56 PM 75.0 °F 39.9 °F 28% 30.12 in - Variable 4.6 mph - N/A   Unknown
5:56 PM 70.0 °F 43.0 °F 38% 30.13 in - Calm Calm - N/A   Unknown
6:56 PM 64.9 °F 46.9 °F 52% 30.15 in - Calm Calm - N/A   Unknown
7:56 PM 64.0 °F 48.0 °F 56% 30.14 in - Variable 3.5 mph - N/A   Unknown
8:56 PM 64.9 °F 48.0 °F 54% 30.14 in - Variable 4.6 mph - N/A   Unknown
9:56 PM 66.0 °F 51.1 °F 59% 30.14 in - Variable 6.9 mph - N/A   Unknown
10:56 PM 66.0 °F 52.0 °F 60% 30.13 in - NW 10.4 mph 17.3 mph N/A   Unknown
11:56 PM 64.9 °F 52.0 °F 63% 30.11 in - NW 11.5 mph 19.6 mph N/A   Unknown